Weather History for Bellaire, MI

Change the Weather History Date:

Tuesday, October 18, 2011

  Actual Average (KTVC) Record (KTVC)
Temperature  
Mean Temperature 44 °F 47 °F  
Max Temperature 50 °F 56 °F 83 °F (1950)
Min Temperature 37 °F 38 °F 15 °F (1896)
Degree Days  
Heating Degree Days 22 18  
Month to date heating degree days 266  
Since 1 July heating degree days 528  
Cooling Degree Days 0 0  
Month to date cooling degree days 0  
Year to date cooling degree days 407  
Moisture  
Dew Point 36 °F    
Average Humidity 71    
Maximum Humidity 93    
Minimum Humidity 58    
Precipitation  
Precipitation 0.00 in 0.10 in 1.33 in (1951)
Month to date precipitation 1.90  
Year to date precipitation 26.54  
Sea Level Pressure  
Sea Level Pressure 29.80 in    
Wind  
Wind Speed 3 mph (NNW)    
Max Wind Speed 8 mph    
Max Gust Speed -    
Visibility 10 miles    
Events Rain    
T = Trace of Precipitation, MM = Missing Value Source: NWS Daily Summary

Daily Weather History Graph

Daily Weather History Graph

Search for Another Location

Airport:

Trip Planner

Search our weather history database for the weather conditions in past years. The results will help you decide how hot, cold, wet, or windy it might be!

Date:

Astronomy

Oct. 18, 2011 Rise Set
Actual Time 8:00 AM EDT 6:51 PM EDT
Civil Twilight 7:30 AM EDT 7:20 PM EDT
Nautical Twilight 6:56 AM EDT 7:54 PM EDT
Astronomical Twilight 6:22 AM EDT 8:28 PM EDT
Moon 11:22 PM EDT (10/18) 2:00 PM EDT (10/18)
Length of Visible Light 11h 50m
Length of Day
10h 51m
Waning Gibbous, 65% of the Moon is Illuminated
Oct 18
Waning Gibbous
Oct 19
Last Quarter
Oct 26
New
Nov 2
First Quarter
Nov 10
Full

Hourly Weather History & Observations

Time (EDT) Temp. Windchill Dew Point Humidity Pressure Visibility Wind Dir Wind Speed Gust Speed Precip Events Conditions
12:10 AM 50.0 °F - 35.6 °F 58% 29.69 in 10.0 mi Calm Calm - N/A   Overcast
12:30 AM 48.2 °F - 35.6 °F 62% 29.69 in 10.0 mi NW 3.5 mph - N/A   Overcast
12:50 AM 48.2 °F - 35.6 °F 62% 29.69 in 10.0 mi NW 5.8 mph - N/A   Overcast
1:10 AM 46.4 °F - 35.6 °F 66% 29.69 in 10.0 mi Calm Calm - N/A   Overcast
1:30 AM 46.4 °F - 35.6 °F 66% 29.70 in 10.0 mi Calm Calm - N/A   Overcast
2:11 AM 46.4 °F - 35.6 °F 66% 29.70 in 10.0 mi Calm Calm - N/A   Overcast
2:30 AM 46.4 °F - 37.4 °F 71% 29.70 in 10.0 mi Calm Calm - N/A   Overcast
2:50 AM 46.4 °F 45.2 °F 35.6 °F 66% 29.70 in 10.0 mi WNW 3.5 mph - N/A   Overcast
3:10 AM 46.4 °F 45.2 °F 35.6 °F 66% 29.70 in 10.0 mi WNW 3.5 mph - N/A   Overcast
3:50 AM 46.4 °F 45.2 °F 37.4 °F 71% 29.71 in 10.0 mi WNW 3.5 mph - N/A   Overcast
4:30 AM 46.4 °F - 37.4 °F 71% 29.71 in 10.0 mi Calm Calm - N/A   Overcast
4:49 AM 46.4 °F 44.3 °F 37.4 °F 71% 29.71 in 10.0 mi NW 4.6 mph - N/A   Overcast
5:10 AM 46.4 °F - 35.6 °F 66% 29.71 in 10.0 mi Calm Calm - N/A   Overcast
5:31 AM 46.4 °F - 35.6 °F 66% 29.71 in 10.0 mi Calm Calm - N/A   Overcast
6:10 AM 44.6 °F 41.4 °F 35.6 °F 71% 29.73 in 10.0 mi NNW 5.8 mph - N/A   Overcast
6:31 AM 44.6 °F 42.2 °F 35.6 °F 71% 29.74 in 10.0 mi North 4.6 mph - N/A   Overcast
7:10 AM 44.6 °F - 35.6 °F 71% 29.75 in 10.0 mi Calm Calm - N/A   Overcast
7:30 AM 44.6 °F 42.2 °F 35.6 °F 71% 29.75 in 10.0 mi NNW 4.6 mph - N/A   Overcast
8:10 AM 44.6 °F - 35.6 °F 71% 29.77 in 10.0 mi Calm Calm - N/A   Overcast
8:30 AM 44.6 °F - 37.4 °F 76% 29.77 in 10.0 mi Calm Calm - N/A   Overcast
8:50 AM 44.6 °F 42.2 °F 37.4 °F 76% 29.78 in 10.0 mi NNW 4.6 mph - N/A   Overcast
9:10 AM 44.6 °F 42.2 °F 35.6 °F 71% 29.78 in 10.0 mi NNW 4.6 mph - N/A   Overcast
9:30 AM 44.6 °F 41.4 °F 35.6 °F 71% 29.78 in 10.0 mi NNW 5.8 mph - N/A   Overcast
9:50 AM 46.4 °F 45.2 °F 35.6 °F 66% 29.78 in 10.0 mi NNW 3.5 mph - N/A   Overcast
10:10 AM 44.6 °F 40.2 °F 35.6 °F 71% 29.79 in 10.0 mi NW 8.1 mph - N/A   Overcast
10:30 AM 44.6 °F 40.7 °F 35.6 °F 71% 29.80 in 10.0 mi NNW 6.9 mph - N/A   Overcast
10:50 AM 46.4 °F 42.9 °F 35.6 °F 66% 29.80 in 10.0 mi North 6.9 mph - N/A   Overcast
11:11 AM 44.6 °F 40.7 °F 37.4 °F 76% 29.81 in 10.0 mi NW 6.9 mph - N/A   Overcast
11:30 AM 44.6 °F 42.2 °F 37.4 °F 76% 29.81 in 10.0 mi NNW 4.6 mph - N/A   Overcast
11:49 AM 46.4 °F 43.5 °F 37.4 °F 71% 29.82 in 10.0 mi North 5.8 mph - N/A   Overcast
12:10 PM 46.4 °F 45.2 °F 37.4 °F 71% 29.82 in 7.0 mi NW 3.5 mph - N/A Rain Light Rain
12:50 PM 46.4 °F 44.3 °F 35.6 °F 66% 29.83 in 10.0 mi NNW 4.6 mph - N/A   Overcast
1:10 PM 46.4 °F 45.2 °F 35.6 °F 66% 29.83 in 10.0 mi NNW 3.5 mph - N/A   Overcast
1:31 PM 48.2 °F - 35.6 °F 62% 29.83 in 10.0 mi WNW 8.1 mph - N/A   Overcast
1:50 PM 46.4 °F 42.4 °F 35.6 °F 66% 29.83 in 10.0 mi North 8.1 mph - N/A   Overcast
2:10 PM 48.2 °F - 35.6 °F 62% 29.83 in 10.0 mi North 6.9 mph - N/A   Overcast
2:31 PM 46.4 °F 43.5 °F 35.6 °F 66% 29.83 in 10.0 mi NNW 5.8 mph - N/A   Overcast
3:10 PM 46.4 °F 42.9 °F 35.6 °F 66% 29.83 in 10.0 mi North 6.9 mph - N/A   Overcast
3:30 PM 46.4 °F 45.2 °F 33.8 °F 62% 29.83 in 10.0 mi North 3.5 mph - N/A   Scattered Clouds
3:50 PM 48.2 °F - 33.8 °F 58% 29.83 in 10.0 mi NW 6.9 mph - N/A   Scattered Clouds
4:10 PM 48.2 °F - 33.8 °F 58% 29.83 in 10.0 mi WNW 4.6 mph - N/A   Scattered Clouds
4:30 PM 46.4 °F 44.3 °F 33.8 °F 62% 29.84 in 10.0 mi NW 4.6 mph - N/A   Clear
4:50 PM 50.0 °F - 35.6 °F 58% 29.84 in 10.0 mi NW 4.6 mph - N/A   Mostly Cloudy
5:11 PM 44.6 °F 43.1 °F 37.4 °F 76% 29.85 in 7.0 mi North 3.5 mph - N/A Rain Light Rain
5:30 PM 44.6 °F 43.1 °F 37.4 °F 76% 29.85 in 10.0 mi NNW 3.5 mph - N/A Rain Light Rain
5:50 PM 44.6 °F 42.2 °F 37.4 °F 76% 29.86 in 10.0 mi NNW 4.6 mph - N/A   Overcast
6:50 PM 44.6 °F 43.1 °F 37.4 °F 76% 29.87 in 10.0 mi NNW 3.5 mph - N/A   Light Drizzle
7:11 PM 42.8 °F 41.1 °F 37.4 °F 81% 29.88 in 10.0 mi NNW 3.5 mph - N/A   Overcast
7:30 PM 42.8 °F - 37.4 °F 81% 29.88 in 10.0 mi Calm Calm - N/A   Overcast
7:50 PM 42.8 °F - 37.4 °F 81% 29.89 in 10.0 mi Calm Calm - N/A   Overcast
8:10 PM 41.0 °F - 37.4 °F 87% 29.89 in 10.0 mi Calm Calm - N/A   Overcast
8:30 PM 41.0 °F 39.0 °F 37.4 °F 87% 29.89 in 10.0 mi NNE 3.5 mph - N/A   Overcast
9:10 PM 41.0 °F - 37.4 °F 87% 29.89 in 10.0 mi Calm Calm - N/A   Overcast
9:30 PM 39.2 °F - 35.6 °F 87% 29.90 in 10.0 mi Calm Calm - N/A   Overcast
9:50 PM 37.4 °F - 35.6 °F 93% 29.90 in 10.0 mi Calm Calm - N/A   Scattered Clouds
10:10 PM 37.4 °F - 35.6 °F 93% 29.91 in 10.0 mi Calm Calm - N/A   Mostly Cloudy
10:31 PM 37.4 °F - 35.6 °F 93% 29.91 in 10.0 mi Calm Calm - N/A   Mostly Cloudy
10:50 PM 35.6 °F - 35.6 °F 100% 29.91 in 10.0 mi Calm Calm - N/A   Scattered Clouds
11:10 PM 35.6 °F - 33.8 °F 93% 29.91 in 10.0 mi Calm Calm - N/A   Scattered Clouds
11:30 PM 35.6 °F - 35.6 °F 100% 29.92 in 10.0 mi Calm Calm - N/A   Overcast
11:50 PM 35.6 °F - 35.6 °F 100% 29.91 in 10.0 mi Calm Calm - N/A   Overcast